Location: Blairvadach
(56.2780°N, 6.9720°W)
Time: 20:54:28
(UTC+00:00)

Envisat - Pass Details

Date: 15 November 2019
Orbit: 764 x 766 km, 98.1° (Epoch: 14 December)

Event Time Altitude Azimuth Distance (km) Brightness Sun altitude
Rises 18:06:50 0° 162° (SSE) 3,225 6.2 -14.6°
Reaches altitude 10° 18:09:07 10° 163° (SSE) 2,303 5.4 -14.9°
Maximum altitude 18:14:13 88° 253° (WSW) 775 3.0 -15.6°
Drops below altitude 10° 18:19:21 10° 344° (NNW) 2,318 5.6 -16.3°
Sets 18:21:40 0° 345° (NNW) 3,249 6.3 -16.6°
